Time,TemperatureF,DewpointF,PressureIn,WindDirection,WindDirectionDegrees,WindSpeedMPH,WindSpeedGustMPH,Humidity,HourlyPrecipIn,Conditions,Clouds,dailyrainin,SoftwareType,DateUTC
2013-03-03 00:01:00,50.0,-99.9,30.11,NW,310,2.0,4.0,-999,-99.99,,,-99.99,,2013-03-03 08:01:00,
2013-03-03 00:11:00,50.0,-99.9,30.11,West,269,4.0,7.0,-999,-99.99,,,-99.99,,2013-03-03 08:11:00,
2013-03-03 00:21:00,50.0,-99.9,30.12,SE,140,4.0,4.0,-999,-99.99,,,-99.99,,2013-03-03 08:21:00,
2013-03-03 00:32:00,50.0,-99.9,30.11,SW,223,2.0,2.0,-999,-99.99,,,-99.99,,2013-03-03 08:32:00,
2013-03-03 00:42:00,50.0,-99.9,30.12,SSE,162,3.0,4.0,-999,-99.99,,,-99.99,,2013-03-03 08:42:00,
2013-03-03 00:54:00,50.0,-99.9,30.12,SSW,204,1.0,4.0,-999,-99.99,,,-99.99,,2013-03-03 08:54:00,
2013-03-03 01:02:00,50.0,-99.9,30.12,WSW,251,3.0,3.0,-999,-99.99,,,-99.99,,2013-03-03 09:02:00,
2013-03-03 01:12:00,50.0,-99.9,30.13,SW,216,2.0,8.0,-999,-99.99,,,-99.99,,2013-03-03 09:12:00,
2013-03-03 01:22:00,50.0,-99.9,30.12,West,260,4.0,5.0,-999,-99.99,,,-99.99,,2013-03-03 09:22:00,
2013-03-03 01:32:00,50.0,-99.9,30.12,SE,128,3.0,4.0,-999,-99.99,,,-99.99,,2013-03-03 09:32:00,
2013-03-03 01:42:00,50.0,-99.9,30.12,SSW,209,1.0,3.0,-999,-99.99,,,-99.99,,2013-03-03 09:42:00,
2013-03-03 01:52:00,50.0,-99.9,30.12,East,96,2.0,4.0,-999,-99.99,,,-99.99,,2013-03-03 09:52:00,
2013-03-03 02:01:00,50.0,-99.9,30.12,ESE,111,2.0,3.0,-999,-99.99,,,-99.99,,2013-03-03 10:01:00,
2013-03-03 02:12:00,50.0,-99.9,30.12,NE,51,1.0,2.0,-999,-99.99,,,-99.99,,2013-03-03 10:12:00,
2013-03-03 02:22:00,50.0,-99.9,30.12,ESE,113,3.0,6.0,-999,-99.99,,,-99.99,,2013-03-03 10:22:00,
2013-03-03 02:32:00,50.0,-99.9,30.11,ESE,108,3.0,7.0,-999,-99.99,,,-99.99,,2013-03-03 10:32:00,
2013-03-03 02:42:00,50.0,-99.9,30.11,East,93,4.0,8.0,-999,-99.99,,,-99.99,,2013-03-03 10:42:00,
2013-03-03 02:52:00,50.0,-99.9,30.11,SE,132,3.0,7.0,-999,-99.99,,,-99.99,,2013-03-03 10:52:00,
2013-03-03 03:02:00,50.0,-99.9,30.11,SSE,166,2.0,7.0,-999,-99.99,,,-99.99,,2013-03-03 11:02:00,
2013-03-03 03:11:00,50.0,-99.9,30.11,SE,133,3.0,8.0,-999,-99.99,,,-99.99,,2013-03-03 11:11:00,
2013-03-03 03:22:00,50.0,-99.9,30.11,SE,133,2.0,5.0,-999,-99.99,,,-99.99,,2013-03-03 11:22:00,
2013-03-03 03:32:00,50.0,-99.9,30.10,WSW,242,2.0,7.0,-999,-99.99,,,-99.99,,2013-03-03 11:32:00,
2013-03-03 03:42:00,50.0,-99.9,30.10,SW,236,1.0,4.0,-999,-99.99,,,-99.99,,2013-03-03 11:42:00,
2013-03-03 03:53:00,50.0,-99.9,30.10,West,280,4.0,6.0,-999,-99.99,,,-99.99,,2013-03-03 11:53:00,
2013-03-03 04:02:00,50.0,-99.9,30.10,SSW,199,2.0,5.0,-999,-99.99,,,-99.99,,2013-03-03 12:02:00,
2013-03-03 04:11:00,50.0,-99.9,30.10,NW,322,1.0,4.0,-999,-99.99,,,-99.99,,2013-03-03 12:11:00,
2013-03-03 04:22:00,50.0,-99.9,30.10,NNW,345,2.0,3.0,-999,-99.99,,,-99.99,,2013-03-03 12:22:00,
2013-03-03 04:32:00,50.0,-99.9,30.10,WSW,239,1.0,5.0,-999,-99.99,,,-99.99,,2013-03-03 12:32:00,
2013-03-03 04:43:00,50.0,-99.9,30.10,SW,229,0.0,1.0,-999,-99.99,,,-99.99,,2013-03-03 12:43:00,
2013-03-03 04:53:00,50.0,-99.9,30.10,WSW,246,2.0,5.0,-999,-99.99,,,-99.99,,2013-03-03 12:53:00,
2013-03-03 05:02:00,50.0,-99.9,30.10,SSW,201,0.0,2.0,-999,-99.99,,,-99.99,,2013-03-03 13:02:00,
2013-03-03 05:11:00,50.0,-99.9,30.10,West,275,4.0,6.0,-999,-99.99,,,-99.99,,2013-03-03 13:11:00,
2013-03-03 05:22:00,50.0,-99.9,30.11,West,268,4.0,6.0,-999,-99.99,,,-99.99,,2013-03-03 13:22:00,
2013-03-03 05:32:00,50.0,-99.9,30.11,West,266,4.0,6.0,-999,-99.99,,,-99.99,,2013-03-03 13:32:00,
2013-03-03 05:42:00,50.0,-99.9,30.10,West,272,5.0,7.0,-999,-99.99,,,-99.99,,2013-03-03 13:42:00,
2013-03-03 05:52:00,50.0,-99.9,30.10,West,266,4.0,8.0,-999,-99.99,,,-99.99,,2013-03-03 13:52:00,
2013-03-03 06:02:00,50.0,-99.9,30.10,West,265,5.0,7.0,-999,-99.99,,,-99.99,,2013-03-03 14:02:00,
2013-03-03 06:11:00,50.0,-99.9,30.11,WNW,283,6.0,10.0,-999,-99.99,,,-99.99,,2013-03-03 14:11:00,
2013-03-03 06:22:00,51.0,-99.9,30.11,WNW,288,5.0,8.0,-999,-99.99,,,-99.99,,2013-03-03 14:22:00,
2013-03-03 06:32:00,51.0,-99.9,30.11,WNW,286,7.0,9.0,-999,-99.99,,,-99.99,,2013-03-03 14:32:00,
2013-03-03 06:42:00,50.0,-99.9,30.11,WNW,292,10.0,12.0,-999,-99.99,,,-99.99,,2013-03-03 14:42:00,
2013-03-03 06:52:00,50.0,-99.9,30.11,WNW,292,11.0,13.0,-999,-99.99,,,-99.99,,2013-03-03 14:52:00,
2013-03-03 07:02:00,50.0,-99.9,30.11,WNW,288,14.0,17.0,-999,-99.99,,,-99.99,,2013-03-03 15:02:00,
2013-03-03 07:11:00,50.0,-99.9,30.11,WNW,284,10.0,13.0,-999,-99.99,,,-99.99,,2013-03-03 15:11:00,
2013-03-03 07:22:00,50.0,-99.9,30.11,West,281,9.0,11.0,-999,-99.99,,,-99.99,,2013-03-03 15:22:00,
2013-03-03 07:32:00,50.0,-99.9,30.11,West,281,5.0,10.0,-999,-99.99,,,-99.99,,2013-03-03 15:32:00,
2013-03-03 07:42:00,50.0,-99.9,30.12,West,263,2.0,4.0,-999,-99.99,,,-99.99,,2013-03-03 15:42:00,
2013-03-03 07:52:00,50.0,-99.9,30.12,West,272,5.0,6.0,-999,-99.99,,,-99.99,,2013-03-03 15:52:00,
2013-03-03 08:02:00,50.0,-99.9,30.12,WNW,283,11.0,14.0,-999,-99.99,,,-99.99,,2013-03-03 16:02:00,
2013-03-03 08:12:00,51.0,-99.9,30.11,WNW,284,14.0,16.0,-999,-99.99,,,-99.99,,2013-03-03 16:12:00,
2013-03-03 08:22:00,51.0,-99.9,30.11,WNW,284,14.0,17.0,-999,-99.99,,,-99.99,,2013-03-03 16:22:00,
2013-03-03 08:32:00,51.0,-99.9,30.11,WNW,285,14.0,17.0,-999,-99.99,,,-99.99,,2013-03-03 16:32:00,
2013-03-03 08:42:00,51.0,-99.9,30.11,West,279,13.0,17.0,-999,-99.99,,,-99.99,,2013-03-03 16:42:00,
2013-03-03 08:52:00,51.0,-99.9,30.11,West,275,13.0,16.0,-999,-99.99,,,-99.99,,2013-03-03 16:52:00,
2013-03-03 09:01:00,51.0,-99.9,30.11,WNW,284,17.0,19.0,-999,-99.99,,,-99.99,,2013-03-03 17:01:00,
2013-03-03 09:12:00,51.0,-99.9,30.12,WNW,283,17.0,21.0,-999,-99.99,,,-99.99,,2013-03-03 17:12:00,
2013-03-03 09:22:00,51.0,-99.9,30.12,WNW,282,17.0,19.0,-999,-99.99,,,-99.99,,2013-03-03 17:22:00,
2013-03-03 09:32:00,51.0,-99.9,30.12,WNW,283,16.0,18.0,-999,-99.99,,,-99.99,,2013-03-03 17:32:00,
2013-03-03 09:42:00,51.0,-99.9,30.12,WNW,286,15.0,18.0,-999,-99.99,,,-99.99,,2013-03-03 17:42:00,
2013-03-03 09:52:00,51.0,-99.9,30.13,West,281,15.0,18.0,-999,-99.99,,,-99.99,,2013-03-03 17:52:00,
2013-03-03 10:02:00,51.0,-99.9,30.12,WNW,284,13.0,19.0,-999,-99.99,,,-99.99,,2013-03-03 18:02:00,
2013-03-03 10:11:00,51.0,-99.9,30.12,WNW,291,14.0,17.0,-999,-99.99,,,-99.99,,2013-03-03 18:11:00,
2013-03-03 10:22:00,51.0,-99.9,30.13,WNW,293,16.0,18.0,-999,-99.99,,,-99.99,,2013-03-03 18:22:00,
2013-03-03 10:32:00,51.0,-99.9,30.13,WNW,302,16.0,19.0,-999,-99.99,,,-99.99,,2013-03-03 18:32:00,
2013-03-03 10:42:00,50.0,-99.9,30.13,WNW,302,19.0,22.0,-999,-99.99,,,-99.99,,2013-03-03 18:42:00,
2013-03-03 10:53:00,50.0,-99.9,30.13,WNW,300,19.0,24.0,-999,-99.99,,,-99.99,,2013-03-03 18:53:00,
2013-03-03 11:02:00,50.0,-99.9,30.13,WNW,303,21.0,24.0,-999,-99.99,,,-99.99,,2013-03-03 19:02:00,
2013-03-03 11:11:00,50.0,-99.9,30.12,WNW,300,20.0,24.0,-999,-99.99,,,-99.99,,2013-03-03 19:11:00,
2013-03-03 11:22:00,50.0,-99.9,30.12,NW,305,21.0,23.0,-999,-99.99,,,-99.99,,2013-03-03 19:22:00,
2013-03-03 11:32:00,50.0,-99.9,30.12,WNW,299,20.0,24.0,-999,-99.99,,,-99.99,,2013-03-03 19:32:00,
2013-03-03 11:42:00,49.0,-99.9,30.12,NW,304,20.0,22.0,-999,-99.99,,,-99.99,,2013-03-03 19:42:00,
2013-03-03 11:52:00,49.0,-99.9,30.12,NW,304,19.0,23.0,-999,-99.99,,,-99.99,,2013-03-03 19:52:00,
2013-03-03 12:02:00,49.0,-99.9,30.12,NW,312,20.0,22.0,-999,-99.99,,,-99.99,,2013-03-03 20:02:00,
2013-03-03 12:12:00,49.0,-99.9,30.11,NW,307,19.0,21.0,-999,-99.99,,,-99.99,,2013-03-03 20:12:00,
2013-03-03 12:22:00,49.0,-99.9,30.11,WNW,300,20.0,22.0,-999,-99.99,,,-99.99,,2013-03-03 20:22:00,
2013-03-03 12:32:00,49.0,-99.9,30.11,WNW,301,17.0,24.0,-999,-99.99,,,-99.99,,2013-03-03 20:32:00,
2013-03-03 12:43:00,49.0,-99.9,30.11,NW,305,17.0,23.0,-999,-99.99,,,-99.99,,2013-03-03 20:43:00,
2013-03-03 12:53:00,49.0,-99.9,30.11,WNW,294,15.0,19.0,-999,-99.99,,,-99.99,,2013-03-03 20:53:00,
2013-03-03 13:02:00,49.0,-99.9,30.10,WNW,298,16.0,21.0,-999,-99.99,,,-99.99,,2013-03-03 21:02:00,
2013-03-03 13:12:00,49.0,-99.9,30.10,WNW,299,17.0,21.0,-999,-99.99,,,-99.99,,2013-03-03 21:12:00,
2013-03-03 13:22:00,49.0,-99.9,30.09,WNW,300,15.0,21.0,-999,-99.99,,,-99.99,,2013-03-03 21:22:00,
2013-03-03 13:32:00,50.0,-99.9,30.09,WNW,295,12.0,17.0,-999,-99.99,,,-99.99,,2013-03-03 21:32:00,
2013-03-03 13:42:00,50.0,-99.9,30.10,WNW,294,15.0,18.0,-999,-99.99,,,-99.99,,2013-03-03 21:42:00,
2013-03-03 13:52:00,50.0,-99.9,30.09,WNW,285,15.0,19.0,-999,-99.99,,,-99.99,,2013-03-03 21:52:00,
2013-03-03 14:02:00,50.0,-99.9,30.09,WNW,296,13.0,19.0,-999,-99.99,,,-99.99,,2013-03-03 22:02:00,
2013-03-03 14:11:00,50.0,-99.9,30.09,NW,310,14.0,17.0,-999,-99.99,,,-99.99,,2013-03-03 22:11:00,
2013-03-03 14:22:00,50.0,-99.9,30.09,WNW,298,14.0,19.0,-999,-99.99,,,-99.99,,2013-03-03 22:22:00,
2013-03-03 14:32:00,50.0,-99.9,30.10,WNW,289,15.0,20.0,-999,-99.99,,,-99.99,,2013-03-03 22:32:00,
2013-03-03 14:42:00,50.0,-99.9,30.10,NW,308,14.0,20.0,-999,-99.99,,,-99.99,,2013-03-03 22:42:00,
2013-03-03 14:53:00,50.0,-99.9,30.10,WNW,301,13.0,19.0,-999,-99.99,,,-99.99,,2013-03-03 22:53:00,
2013-03-03 15:02:00,50.0,-99.9,30.09,WNW,300,12.0,19.0,-999,-99.99,,,-99.99,,2013-03-03 23:02:00,
2013-03-03 15:11:00,50.0,-99.9,30.09,WNW,298,13.0,17.0,-999,-99.99,,,-99.99,,2013-03-03 23:11:00,
2013-03-03 15:22:00,50.0,-99.9,30.09,WNW,298,15.0,18.0,-999,-99.99,,,-99.99,,2013-03-03 23:22:00,
2013-03-03 15:32:00,50.0,-99.9,30.10,NW,305,14.0,17.0,-999,-99.99,,,-99.99,,2013-03-03 23:32:00,
2013-03-03 15:42:00,50.0,-99.9,30.09,NW,308,16.0,20.0,-999,-99.99,,,-99.99,,2013-03-03 23:42:00,
2013-03-03 15:52:00,50.0,-99.9,30.09,WNW,292,14.0,19.0,-999,-99.99,,,-99.99,,2013-03-03 23:52:00,
2013-03-03 16:02:00,50.0,-99.9,30.09,WNW,292,13.0,18.0,-999,-99.99,,,-99.99,,2013-03-04 00:02:00,
2013-03-03 16:11:00,50.0,-99.9,30.09,WNW,295,16.0,18.0,-999,-99.99,,,-99.99,,2013-03-04 00:11:00,
2013-03-03 16:22:00,50.0,-99.9,30.09,WNW,294,17.0,21.0,-999,-99.99,,,-99.99,,2013-03-04 00:22:00,
2013-03-03 16:32:00,50.0,-99.9,30.08,WNW,299,15.0,20.0,-999,-99.99,,,-99.99,,2013-03-04 00:32:00,
2013-03-03 16:42:00,50.0,-99.9,30.08,WNW,297,14.0,20.0,-999,-99.99,,,-99.99,,2013-03-04 00:42:00,
2013-03-03 16:52:00,50.0,-99.9,30.08,WNW,291,16.0,19.0,-999,-99.99,,,-99.99,,2013-03-04 00:52:00,
2013-03-03 17:02:00,50.0,-99.9,30.09,NW,307,17.0,20.0,-999,-99.99,,,-99.99,,2013-03-04 01:02:00,
2013-03-03 17:12:00,50.0,-99.9,30.09,WNW,291,16.0,20.0,-999,-99.99,,,-99.99,,2013-03-04 01:12:00,
2013-03-03 17:22:00,50.0,-99.9,30.09,WNW,293,17.0,21.0,-999,-99.99,,,-99.99,,2013-03-04 01:22:00,
2013-03-03 17:32:00,50.0,-99.9,30.09,WNW,295,12.0,17.0,-999,-99.99,,,-99.99,,2013-03-04 01:32:00,
2013-03-03 17:42:00,49.0,-99.9,30.09,WNW,301,13.0,19.0,-999,-99.99,,,-99.99,,2013-03-04 01:42:00,
2013-03-03 17:52:00,49.0,-99.9,30.09,NW,307,15.0,17.0,-999,-99.99,,,-99.99,,2013-03-04 01:52:00,
2013-03-03 18:01:00,49.0,-99.9,30.09,WNW,297,13.0,18.0,-999,-99.99,,,-99.99,,2013-03-04 02:01:00,
2013-03-03 18:11:00,49.0,-99.9,30.09,WNW,303,13.0,16.0,-999,-99.99,,,-99.99,,2013-03-04 02:11:00,
2013-03-03 18:22:00,49.0,-99.9,30.09,WNW,295,15.0,17.0,-999,-99.99,,,-99.99,,2013-03-04 02:22:00,
2013-03-03 18:32:00,49.0,-99.9,30.09,WNW,300,12.0,15.0,-999,-99.99,,,-99.99,,2013-03-04 02:32:00,
2013-03-03 18:42:00,49.0,-99.9,30.09,WNW,302,10.0,15.0,-999,-99.99,,,-99.99,,2013-03-04 02:42:00,
2013-03-03 18:53:00,49.0,-99.9,30.09,WNW,302,9.0,13.0,-999,-99.99,,,-99.99,,2013-03-04 02:53:00,
2013-03-03 19:02:00,49.0,-99.9,30.09,WNW,297,10.0,13.0,-999,-99.99,,,-99.99,,2013-03-04 03:02:00,
2013-03-03 19:11:00,49.0,-99.9,30.10,WNW,295,9.0,12.0,-999,-99.99,,,-99.99,,2013-03-04 03:11:00,
2013-03-03 19:22:00,49.0,-99.9,30.10,WNW,294,10.0,15.0,-999,-99.99,,,-99.99,,2013-03-04 03:22:00,
2013-03-03 19:32:00,49.0,-99.9,30.10,WNW,302,13.0,18.0,-999,-99.99,,,-99.99,,2013-03-04 03:32:00,
2013-03-03 19:42:00,49.0,-99.9,30.10,NW,304,17.0,21.0,-999,-99.99,,,-99.99,,2013-03-04 03:42:00,
2013-03-03 19:53:00,49.0,-99.9,30.10,WNW,299,16.0,19.0,-999,-99.99,,,-99.99,,2013-03-04 03:53:00,
2013-03-03 20:02:00,49.0,-99.9,30.10,WNW,301,13.0,17.0,-999,-99.99,,,-99.99,,2013-03-04 04:02:00,
2013-03-03 20:11:00,49.0,-99.9,30.10,WNW,298,15.0,18.0,-999,-99.99,,,-99.99,,2013-03-04 04:11:00,
2013-03-03 20:22:00,49.0,-99.9,30.10,WNW,286,14.0,19.0,-999,-99.99,,,-99.99,,2013-03-04 04:22:00,
2013-03-03 20:32:00,49.0,-99.9,30.11,WNW,292,15.0,22.0,-999,-99.99,,,-99.99,,2013-03-04 04:32:00,
2013-03-03 20:42:00,49.0,-99.9,30.11,WNW,299,13.0,20.0,-999,-99.99,,,-99.99,,2013-03-04 04:42:00,
2013-03-03 20:52:00,49.0,-99.9,30.11,NW,306,15.0,19.0,-999,-99.99,,,-99.99,,2013-03-04 04:52:00,
2013-03-03 21:01:00,49.0,-99.9,30.11,WNW,291,13.0,21.0,-999,-99.99,,,-99.99,,2013-03-04 05:01:00,
2013-03-03 21:11:00,49.0,-99.9,30.11,WNW,294,13.0,19.0,-999,-99.99,,,-99.99,,2013-03-04 05:11:00,
2013-03-03 21:22:00,49.0,-99.9,30.11,WNW,298,17.0,21.0,-999,-99.99,,,-99.99,,2013-03-04 05:22:00,
2013-03-03 21:32:00,49.0,-99.9,30.11,WNW,303,17.0,23.0,-999,-99.99,,,-99.99,,2013-03-04 05:32:00,
2013-03-03 21:43:00,49.0,-99.9,30.11,WNW,301,16.0,22.0,-999,-99.99,,,-99.99,,2013-03-04 05:43:00,
2013-03-03 21:52:00,49.0,-99.9,30.11,NW,305,16.0,22.0,-999,-99.99,,,-99.99,,2013-03-04 05:52:00,
2013-03-03 22:02:00,49.0,-99.9,30.12,NW,304,16.0,20.0,-999,-99.99,,,-99.99,,2013-03-04 06:02:00,
2013-03-03 22:11:00,49.0,-99.9,30.12,NW,313,17.0,20.0,-999,-99.99,,,-99.99,,2013-03-04 06:11:00,
2013-03-03 22:22:00,49.0,-99.9,30.11,NW,314,17.0,21.0,-999,-99.99,,,-99.99,,2013-03-04 06:22:00,
2013-03-03 22:32:00,48.0,-99.9,30.11,NW,314,19.0,23.0,-999,-99.99,,,-99.99,,2013-03-04 06:32:00,
2013-03-03 22:42:00,48.0,-99.9,30.11,NW,312,17.0,23.0,-999,-99.99,,,-99.99,,2013-03-04 06:42:00,
2013-03-03 22:52:00,48.0,-99.9,30.10,NW,306,15.0,19.0,-999,-99.99,,,-99.99,,2013-03-04 06:52:00,
2013-03-03 23:02:00,48.0,-99.9,30.11,NW,304,15.0,20.0,-999,-99.99,,,-99.99,,2013-03-04 07:02:00,
2013-03-03 23:11:00,48.0,-99.9,30.11,NW,305,13.0,17.0,-999,-99.99,,,-99.99,,2013-03-04 07:11:00,
2013-03-03 23:22:00,48.0,-99.9,30.11,NW,304,14.0,17.0,-999,-99.99,,,-99.99,,2013-03-04 07:22:00,
2013-03-03 23:32:00,48.0,-99.9,30.10,WNW,303,11.0,16.0,-999,-99.99,,,-99.99,,2013-03-04 07:32:00,
2013-03-03 23:42:00,48.0,-99.9,30.10,West,281,8.0,9.0,-999,-99.99,,,-99.99,,2013-03-04 07:42:00,
2013-03-03 23:52:00,48.0,-99.9,30.10,WNW,282,8.0,10.0,-999,-99.99,,,-99.99,,2013-03-04 07:52:00,